Location: Blandford
(50.8667°N, 2.1667°W)
Time: 13:43:17
(UTC+00:00)

Cosmos 2360 Rocket - Pass Details

Date: 09 April 2020
Orbit: 834 x 845 km, 71.0° (Epoch: 02 June)

Event Time Altitude Azimuth Distance (km) Brightness Sun altitude
Rises 23:11:31 0° 331° (NNW) 3,394 6.5 -29.8°
Reaches altitude 10° 23:14:03 10° 337° (NNW) 2,458 5.5 -29.9°
Enters shadow 23:19:26 51° 49° (NE) 1,053 2.7 -30.1°
